Cortland County-chase Field, NY

10:55 PM EDT on October 18, 2019 (GMT -0400)
Cortland County-chase Field

Weather History for KN03 - September, 2019

Change the Weather History Date:

Wednesday, September 18, 2019

  Actual Average (KITH) Record (KITH)
Temperature  
Mean Temperature 53 °F -  
Max Temperature 69 °F 70 °F 86 °F (1942)
Min Temperature 37 °F 49 °F 31 °F (1953)
Degree Days  
Heating Degree Days 12    
Growing Degree Days 3 (Base 50)    
Moisture  
Dew Point 43 °F    
Average Humidity 76    
Maximum Humidity 100    
Minimum Humidity 33    
Precipitation  
Precipitation 0.00 in - - ()
Sea Level Pressure  
Sea Level Pressure 30.29 in    
Wind  
Wind Speed 1 mph (NE)    
Max Wind Speed 9 mph    
Max Gust Speed 16 mph    
Visibility 10 miles    
Events      
Averages and records for this station are not official NWS values.
T = Trace of Precipitation, MM = Missing Value Source: NWS Daily Summary

Daily Weather History Graph

Daily Weather History Graph

Search for Another Location

Airport or City:

Astronomy

Sep. 18, 2019 Rise Set
Actual Time 6:47 AM EDT 7:09 PM EDT
Civil Twilight 6:19 AM EDT 7:37 PM EDT
Nautical Twilight 5:46 AM EDT 8:11 PM EDT
Astronomical Twilight 5:11 AM EDT 8:45 PM EDT
Moon 9:37 PM EDT (9/18) 10:53 AM EDT (9/18)
Length of Visible Light 13h 18m
Length of Day
12h 22m
Waning Gibbous, 82% of the Moon is Illuminated
Sep 18
Waning Gibbous
Sep 21
Last Quarter
Sep 28
New
Oct 5
First Quarter
Oct 13
Full

Hourly Weather History & Observations

Time (EDT) Temp. Dew Point Humidity Pressure Visibility Wind Dir Wind Speed Gust Speed Precip Events Conditions
12:15 AM 42.8 °F 42.8 °F 100% 30.25 in 10.0 mi Calm Calm - N/A   Clear
12:35 AM 42.8 °F 42.8 °F 100% 30.24 in 10.0 mi Calm Calm - N/A   Clear
12:55 AM 42.8 °F 42.8 °F 100% 30.24 in 10.0 mi Calm Calm - N/A   Clear
1:15 AM 42.8 °F 42.8 °F 100% 30.25 in 10.0 mi Calm Calm - N/A   Clear
1:35 AM 42.8 °F 42.8 °F 100% 30.25 in 10.0 mi Calm Calm - N/A   Clear
1:55 AM 42.8 °F 42.8 °F 100% 30.25 in 10.0 mi Calm Calm - N/A   Clear
2:15 AM 42.8 °F 42.8 °F 100% 30.25 in 10.0 mi Calm Calm - N/A   Clear
2:35 AM 42.8 °F 42.8 °F 100% 30.26 in 10.0 mi Calm Calm - N/A   Clear
2:55 AM 41.0 °F 41.0 °F 100% 30.26 in 10.0 mi Calm Calm - N/A   Clear
3:15 AM 41.0 °F 41.0 °F 100% 30.25 in 7.0 mi Calm Calm - N/A   Clear
3:35 AM 41.0 °F 41.0 °F 100% 30.25 in 10.0 mi Calm Calm - N/A   Clear
3:55 AM 41.0 °F 41.0 °F 100% 30.25 in 10.0 mi Calm Calm - N/A   Clear
4:15 AM 39.2 °F 39.2 °F 100% 30.26 in 10.0 mi Calm Calm - N/A   Clear
4:35 AM 39.2 °F 39.2 °F 100% 30.26 in 10.0 mi Calm Calm - N/A   Clear
4:55 AM 39.2 °F 39.2 °F 100% 30.27 in 10.0 mi Calm Calm - N/A   Clear
5:55 AM 37.4 °F 37.4 °F 100% 30.28 in 10.0 mi Calm Calm - N/A   Clear
6:15 AM 37.4 °F 37.4 °F 100% 30.29 in 10.0 mi Calm Calm - N/A   Clear
6:35 AM 37.4 °F 37.4 °F 100% 30.29 in 10.0 mi Calm Calm - N/A   Clear
6:55 AM 37.4 °F 37.4 °F 100% 30.30 in 10.0 mi Calm Calm - N/A   Clear
7:15 AM 37.4 °F 37.4 °F 100% 30.30 in 10.0 mi Calm Calm - N/A   Clear
7:35 AM 39.2 °F 39.2 °F 100% 30.31 in 10.0 mi Calm Calm - N/A   Clear
7:55 AM 41.0 °F 41.0 °F 100% 30.31 in 10.0 mi Calm Calm - N/A   Clear
8:15 AM 42.8 °F 42.8 °F 100% 30.31 in 10.0 mi Calm Calm - N/A   Clear
8:35 AM 44.6 °F 44.6 °F 100% 30.31 in 10.0 mi Calm Calm - N/A   Clear
8:55 AM 46.4 °F 46.4 °F 100% 30.31 in 10.0 mi Calm Calm - N/A   Clear
9:15 AM 50.0 °F 46.4 °F 87% 30.31 in 10.0 mi Calm Calm - N/A   Clear
9:35 AM 51.8 °F 46.4 °F 82% 30.31 in 10.0 mi Calm Calm - N/A   Clear
9:55 AM 55.4 °F 46.4 °F 72% 30.31 in 10.0 mi NE 3.5 mph - N/A   Clear
10:15 AM 59.0 °F 44.6 °F 59% 30.31 in 10.0 mi NE 5.8 mph - N/A   Clear
10:35 AM 60.8 °F 46.4 °F 59% 30.31 in 10.0 mi ENE 3.5 mph - N/A   Clear
10:55 AM 60.8 °F 46.4 °F 59% 30.30 in 10.0 mi East 4.6 mph - N/A   Clear
11:15 AM 62.6 °F 42.8 °F 48% 30.30 in 10.0 mi NNE 5.8 mph - N/A   Clear
11:35 AM 64.4 °F 44.6 °F 49% 30.30 in 10.0 mi NE 6.9 mph - N/A   Clear
11:55 AM 64.4 °F 42.8 °F 45% 30.30 in 10.0 mi ENE 6.9 mph - N/A   Clear
12:15 PM 64.4 °F 42.8 °F 45% 30.29 in 10.0 mi NE 5.8 mph - N/A   Clear
12:35 PM 68.0 °F 37.4 °F 33% 30.29 in 10.0 mi ENE 5.8 mph 16.1 mph N/A   Clear
12:55 PM 66.2 °F 37.4 °F 35% 30.29 in 10.0 mi NE 4.6 mph - N/A   Clear
1:15 PM 68.0 °F 39.2 °F 35% 30.29 in 10.0 mi NE 6.9 mph - N/A   Clear
1:35 PM 68.0 °F 41.0 °F 37% 30.29 in 10.0 mi Calm Calm - N/A   Clear
1:55 PM 68.0 °F 39.2 °F 35% 30.29 in 10.0 mi East 8.1 mph - N/A   Clear
2:15 PM 69.8 °F 39.2 °F 33% 30.28 in 10.0 mi ESE 6.9 mph - N/A   Clear
2:35 PM 69.8 °F 41.0 °F 35% 30.28 in 10.0 mi NE 8.1 mph - N/A   Clear
2:55 PM 69.8 °F 41.0 °F 35% 30.28 in 10.0 mi NE 6.9 mph - N/A   Clear
3:15 PM 69.8 °F 41.0 °F 35% 30.27 in 10.0 mi NE 5.8 mph - N/A   Clear
3:35 PM 69.8 °F 42.8 °F 38% 30.26 in 10.0 mi NE 6.9 mph - N/A   Clear
3:55 PM 69.8 °F 42.8 °F 38% 30.26 in 10.0 mi North 8.1 mph - N/A   Clear
4:15 PM 69.8 °F 42.8 °F 38% 30.26 in 10.0 mi NNE 6.9 mph - N/A   Clear
4:35 PM 69.8 °F 42.8 °F 38% 30.26 in 10.0 mi NE 5.8 mph - N/A   Clear
4:55 PM 68.0 °F 42.8 °F 40% 30.27 in 10.0 mi NNE 6.9 mph - N/A   Clear
5:15 PM 68.0 °F 44.6 °F 43% 30.27 in 10.0 mi North 9.2 mph - N/A   Clear
5:35 PM 68.0 °F 44.6 °F 43% 30.28 in 10.0 mi NNE 8.1 mph - N/A   Clear
5:55 PM 66.2 °F 46.4 °F 49% 30.28 in 10.0 mi NNE 3.5 mph - N/A   Clear
6:15 PM 64.4 °F 46.4 °F 52% 30.28 in 10.0 mi Calm Calm - N/A   Clear
6:35 PM 62.6 °F 46.4 °F 55% 30.28 in 10.0 mi Calm Calm - N/A   Clear
6:55 PM 59.0 °F 50.0 °F 72% 30.28 in 10.0 mi Calm Calm - N/A   Clear
7:15 PM 55.4 °F 48.2 °F 77% 30.28 in 10.0 mi Calm Calm - N/A   Clear
7:35 PM 53.6 °F 48.2 °F 82% 30.28 in 10.0 mi Calm Calm - N/A   Clear
7:55 PM 51.8 °F 48.2 °F 88% 30.29 in 10.0 mi Calm Calm - N/A   Clear
8:15 PM 51.8 °F 46.4 °F 82% 30.30 in 10.0 mi Calm Calm - N/A   Clear
8:35 PM 50.0 °F 48.2 °F 94% 30.31 in 10.0 mi Calm Calm - N/A   Clear
8:55 PM 50.0 °F 46.4 °F 87% 30.31 in 10.0 mi Calm Calm - N/A   Clear
9:15 PM 48.2 °F 46.4 °F 93% 30.31 in 10.0 mi Calm Calm - N/A   Clear
9:35 PM 48.2 °F 46.4 °F 93% 30.31 in 10.0 mi Calm Calm - N/A   Clear
9:55 PM 48.2 °F 46.4 °F 93% 30.31 in 10.0 mi Calm Calm - N/A   Clear
10:15 PM 46.4 °F 46.4 °F 100% 30.32 in 10.0 mi Calm Calm - N/A   Clear
10:35 PM 46.4 °F 46.4 °F 100% 30.32 in 10.0 mi Calm Calm - N/A   Clear
10:55 PM 44.6 °F 44.6 °F 100% 30.32 in 10.0 mi Calm Calm - N/A   Clear
11:15 PM 44.6 °F 44.6 °F 100% 30.32 in 10.0 mi Calm Calm - N/A   Clear
11:35 PM 44.6 °F 44.6 °F 100% 30.32 in 10.0 mi Calm Calm - N/A   Clear
11:55 PM 44.6 °F 44.6 °F 100% 30.32 in 10.0 mi Calm Calm - N/A   Clear